FENGYUN 1C DEB, 37444

Orbit data source: Space-Track

FENGYUN 1C DEB, 37444 is space debris in SSO originally from a launch on Mon, 10 May 1999 UTC launched from the Taiyaun Space Center, China (TSC). Fengyun 1C debris stems from the Chinese weather satellite Fengyun-1C, which was intentionally destroyed by a Chinese anti-satellite missile in 2007. This event dramatically increased the amount of space debris, with thousands of trackable fragments posing hazards to satellites and human spaceflight. The Fengyun 1C debris cloud has become a focal point in discussions about space sustainability and the need for international regulations to prevent the creation of new debris.

Loading next visibility...
Identifier
37444, 1999-025EHN
Orbit
SSO
Country
Flag of CNCN / PRC
Related business
Manufacturer
Unknown
Mission
Spacecraft
Bus & Motor
Unknown
Mass
Unknown
Launch date (UTC)
1999-05-10 (27 years ago)
Launch vehicle
Unknown
Launch site
Taiyaun Space Center, China (TSC)
Object type
Payload
Rocket body
Debris
Shape & HBR
Unknown shape, 0.1 m
Radar Cross Section
Small (<0.1 m²)

Expand to show TLE details & history
Last TLE update: 3 days ago

TLE from 3 days ago
0 FENGYUN 1C DEB
1 37444U 99025EHN 26143.50521870  .00002527  00000-0  46840-3 0  9992
2 37444  99.0752 241.2901 0240395 225.0678 133.0791 14.49416426674932
Epoch: 2026-05-23T12:07Z
TLE epoch observation values (Epoch: 2026-05-23T12:07:30.895Z)
Latitude
0.00001°
Longitude
178.29062°
Altitude
849.329 km
Speed
7.366 km/s
True Right ascension
16h 05m 09s
True Declination
0° 00' 00"
Sunlit
Object was in full shadow at epoch
Visualization orbit readout
Latitude
Unknown
Longitude
Unknown
Altitude
Unknown
Speed
Unknown
Apparent Right ascension
Unknown
Apparent Declination
Unknown
Sunlit
N/A
Visualization observer readout
Local Sidereal Time
23:13:24
Azimuth
Unknown
Elevation
Unknown
Doppler factor
Unknown
Orbital elements
Apogee altitude
895.439 km
Perigee altitude
553.942 km
Semi-major axis
7,102.827 km
Eccentricity
0.02404
Inclination
99.0752°
RAAN
241.2901°
Arg. of periapsis
225.0678°
True anomaly
135.0503°
Mean anomaly
133.0791°
Eccentric anomaly
134.06874°
Mean motion
3.62574 °/min
Orbital period
99.29 mins
BSTAR
0.0004684
Loading maneuver chart data...
Computing Atmospheric mass density...

Documentation

Showing up to 5 results
|